Location: Ferchesar
(52.6477°N, 12.4298°E)
Time: 00:23:06
(UTC+01:00)

Transit 4A - Pass Details

Date: 13 December 2021
Orbit: 864 x 981 km, 66.8° (Epoch: 19 January)

Event Time Altitude Azimuth Distance (km) Brightness Sun altitude
Rises 17:12:44 0° 197° (SSW) 3,465 11.6 -10.8°
Reaches altitude 10° 17:15:14 10° 193° (SSW) 2,543 10.7 -11.2°
Maximum altitude 17:20:54 51° 119° (ESE) 1,131 8.1 -12.0°
Enters shadow 17:25:45 15° 48° (NE) 2,278 9.4 -12.6°
